Weather in Aleksandrov Gay

Russia / Saratov Oblast     50˚08′37″N   48˚35′08″E
temp.,
°C
wind,
m/s
gust,
m/s
humid.,
%
clouds,
%
prec.,
mm/h
press.,
hPa
HPBL,
m
15 january, fri
fri1501:00−1˚e3598100 2.0 1008180
04:00−2˚ene3497100 2.3 100877
07:00−3˚ne3497100 0.0 100782
10:00−4˚ne3696100 0.0 1007101
13:00−3˚ene479663 0.0 1006243
16:00−2˚ene479781 0.0 1004347
19:00−2˚e5896100 0.0 1001366
22:00−2˚sse1298100 2.6 100093
16 january, sat
sat1601:00−2˚wsw71293100 1.2 999482
04:00−8˚wsw8159293 1.2 1002441
07:00−9˚wsw91689100 0.0 1005522
10:00−8˚sw9168993 0.0 1008499
13:00−6˚sw8148927 0.0 1009497
16:00−4˚sw8159460 0.1 1009797
19:00−4˚wsw9159297 1.1 1010777
22:00−12˚wsw8158751 1.1 1012513
17 january, sun
sun1701:00−14˚wsw7148944 0.0 1014405
04:00−16˚wsw5129229 0.0 1015306
07:00−17˚wsw479426 0.0 1015117
10:00−18˚wsw349341 0.0 101674
13:00−15˚wsw249196 0.0 1016171
16:00−16˚nnw129298 0.0 101620
19:00−18˚n2291100 0.0 101621
22:00−19˚ne349297 0.0 101643
18 january, mon
mon1801:00−18˚ne479398 0.0 1016156
04:00−18˚ne489398 0.0 1015157
07:00−19˚ne489389 0.0 1014157
10:00−17˚nne589195 0.0 1015239
13:00−15˚nne6990100 0.0 1014283
16:00−14˚nne71189100 0.0 1012339
19:00−15˚n71091100 0.1 1013322
22:00−15˚nne61095100 1.8 1013272
19 january, tue
tue1901:00−16˚nnw5994100 0.3 1013284
04:00−17˚nw4994100 0.3 1014210
07:00−18˚nw5993100 0.0 1015221
10:00−19˚nw4993100 0.0 1016214
13:00−17˚wnw5893100 0.0 1017278
16:00−18˚w369490 0.0 1018137
19:00−20˚w44950 0.0 101856
22:00−21˚w45950 0.0 102065